Notices

What's New in latest Release from April 7th, 2021:

- Updated Glossary, including Speed of Maximum Gust, and Total Hourly Precipitation

- Updated national and regional climate services offices contacts and prices information

- Addition of station inventory lists for 1981-2010, 1971-2000, and 1961-1990 Normals.

If you haven't already, please take our survey and provide feedback about our website: https://eccc.sondage-survey.ca/f/LanguageSelection.aspx?s=442ca660-fcf1-47c0-95a9-59707d6fd709

Hourly Data Report for July 25, 2020

OTTAWA INTL A
ONTARIO
Current Station Operator: NAVCAN

45°19'00.000" N
75°40'00.000" W
114.90 m
6106001
71628
YOW

Download Data

Hourly Data (July 2020)
Hourly Data Report for July 25, 2020
TIME
LST
Temp Definition
°C
Dew Point Definition
°C
Rel Hum Definition
%
Precip. Amount Definition
mm

Wind Dir Definition
10's deg

Wind Spd Definition
km/h
Visibility Definition
km
Stn Press Definition
kPa
Hmdx Definition


Wind Chill Definition


Weather Definition


00:00 20.4 13.2 63   20 8 24.1 100.47     LegendNANA
01:00 17.8 13.3 75   21 8 24.1 100.46     Clear
02:00 18.1 14.3 78   24 9 24.1 100.48     LegendNANA
03:00 16.9 13.8 82   21 6 24.1 100.46     LegendNANA
04:00 16.2 13.9 86   20 5 24.1 100.43     Mainly Clear
05:00 15.0 13.7 92   22 4 24.1 100.47     LegendNANA
06:00 18.0 15.8 86   22 3 24.1 100.49     LegendNANA
07:00 20.0 15.6 76   24 7 24.1 100.53     Mostly Cloudy
08:00 23.3 15.1 60   28 7 24.1 100.52 27   LegendNANA
09:00 25.4 14.5 50   30 5 24.1 100.51 29   LegendNANA
10:00 27.0 15.2 48   24 10 24.1 100.50 31   Mostly Cloudy
11:00 28.3 15.2 44   26 7 24.1 100.42 32   LegendNANA
12:00 31.4 14.5 35   23 14 24.1 100.36 35   LegendNANA
13:00 30.7 12.8 33   18 14 24.1 100.28 33   Mainly Clear
14:00 31.1 12.7 32   20 22 24.1 100.23 34   LegendNANA
15:00 31.8 12.6 30   21 14 24.1 100.18 34   LegendNANA
16:00 30.5 12.6 33   22 18 24.1 100.12 33   Mostly Cloudy
17:00 30.6 13.4 34   22 26 24.1 100.09 34   LegendNANA
18:00 29.6 15.3 41   23 13 24.1 100.06 34   LegendNANA
19:00 27.4 16.8 52   21 13 24.1 100.05 33   Mostly Cloudy
20:00 25.4 17.2 60   21 7 24.1 100.05 31   LegendNANA
21:00 24.1 17.3 65   20 14 24.1 100.03 30   LegendNANA
22:00 24.1 16.5 62   22 13 24.1 100.02 29   Mostly Cloudy
23:00 23.3 15.2 60   23 12 24.1 100.04 27   LegendNANA

Notes on Data Quality.

Legend

  • E = Estimated
  • M = Missing
  • NA = Not Available*
  • [empty] = Indicates an unobserved value
Date modified: